ITUPSAT1 (35935 NORAD) Tracking and Keplerian Element Data

This shows tracking and keplerian element data for the satellite.

Feedback or suggestion? Click here.




ElementValue
Catalog35935
NameITUPSAT1
Epoch Orbit69860
Epoch Day324.61450454
Epoch Year2022
RAAN186.2955
Inclination98.5495
Eccentricity0.0007214
Argument of Perigee310.8498
Mean Anonmoly49.2073
Mean Motion14.56168723
Decay Rate5.51E-06
L11 35935U 09051E 22324.61450454 .00000551 00000+0 13571-3 0 9992
L22 35935 98.5495 186.2955 0007214 310.8498 49.2073 14.56168723698607



Live tracking and technical data element details for ITUPSAT1 (NORAD 35935). ITUPSAT1 can be tracked NOW for your location showing map with azimuth and elevation plus other details from your city location.







IsCatalogInMostPopularTable: catalog: 35935, numindb: 398
Update: records affected: 1



GetName: 35935 ITUPSAT1

Hit Count: updated at: Fri, 02 Dec 2022 13:13:51 GMT